Weather in Charlotte

United States     35°13′50″N   80°50′49″W
В апреле 2022 года жителям России запретили посещать сайт meteo.paraplan.net по решению Генеральной прокуратуры. Аудитория сайта уменьшилась в 10 раз. Владельцы сайта не видят смысла в поддержке погодного сервера в таких условиях. Сайт будет закрыт в октябре.
temp.,
°C
wind,
m/s
gust,
m/s
humid.,
%
clouds,
%
prec.,
mm/h
press.,
hPa
HPBL,
m
4 october, tue
tue423:00+13ene310620 0.0 1021463
02:00+11ne39590 0.0 1021388
05:00+10nne26610 0.0 1020215
08:00+10nw13690 0.0 1020124
11:00+17wnw23510 0.0 1019645
14:00+22wnw35360 0.0 10172012
17:00+23nnw36261 0.0 10142499
20:00+17n311360 0.0 1017516
5 october, wed
wed523:00+14n311410 0.0 1018454
02:00+13nnw27450 0.0 1017205
05:00+12nw27450 0.0 1017195
08:00+12nw27460 0.0 1018185
11:00+19nnw36320 0.0 1018889
14:00+23nnw34330 0.0 10161462
17:00+23nnw34360 0.0 10151656
20:00+19ese11535 0.0 101711
6 october, thu
thu623:00+17nnw24615 0.0 1018104
02:00+15n256697 0.0 1018128
05:00+14nne246492 0.0 101896
08:00+14n136538 0.0 101994
11:00+21w11460 0.0 1019482
14:00+25wsw34330 0.0 10171574
17:00+25wsw34310 0.0 10161868
20:00+20ssw11430 0.0 101712
7 october, fri
fri723:00+18w12470 0.0 101823
02:00+17wsw22500 0.0 101840
05:00+15wsw22530 0.0 101853
08:00+15wsw12540 0.0 101956
11:00+22wsw23400 0.0 1019406
14:00+27wsw36280 0.0 10172243
17:00+28w362755 0.0 10152849
20:00+22nnw28445 0.0 1017269
8 october, sat
sat823:00+19nne39609 0.0 1019352
02:00+15nne4106951 0.0 1021392
05:00+14ne410735 0.0 1023553
08:00+12nne41067100 0.0 1025550
11:00+16ne344596 0.0 1025804
14:00+19ne2234100 0.0 10231117
17:00+20ne22360 0.0 10221407
20:00+16e23480 0.0 102380